Starlink 30873

operational
NORAD ID: 58249 Int'l Des: 2023-171 Owner: SPXS Country: US Constellation: starlink
LEOCIRCULAR

Über Starlink 30873

Beschreibung wird geladen...

Live-Position

3D-Globus wird geladen...

Nächste Überflüge

Höhenverlauf

Altitude vs Time

uPlot chart will show altitude changes over time

Zweizeiliger Elementsatz

1 58249U 23171V 25306.16034820 .00001032 00000-0 91480-4 0 9994
2 58249 43.0050 258.7919 0001096 276.5495 83.5223 15.02536648110541
Epoch: 2. Nov. 2025 • Age: 28 hours

Aktueller Status

Höhe 558.6 km
Geschwindigkeit 7.58 km/s
Subsatellitenpunkt 4.40°N, 91.15°W
Startdatum 8. Nov. 2023
Alter 1.9 years
Typ internet

Technische Details

Klassifizierung Payload
Masse 730.00 kg
Trockenmasse 700.00 kg
Gesamtmasse 730.00 kg
Länge 0.30 m
Durchmesser 4.10 m
Spannweite 29.00 m
Form Box + pan
Hersteller SPXS
Bus-Typ Starlink V2M
Phasenstatus In Orbit
Besitzer/Staat SPXS/US

Große Konstellationen

Loading constellations...